sat.trackr.live / text

‹ back to catalog

O3B FM12

NORAD 40350 · 2014-083C

PAYLOAD ACTIVE UNKNOWN

§ Identity

Operator
Country
O3B
Launch date
2014-12-18
Launch site
FRGUI
Launch vehicle
Mass (kg)
RCS (m²)
7.81

Purposes: comms

External: N2YO · Heavens-Above · Gunter

§ Orbital elements

Epoch: 2026-05-24T05:05:35.149632Z

Period
287.93 min
Inclination
0.0557°
Eccentricity
0.0002546
Mean motion
5.00115963 rev/d
Perigee alt
8,062.2 km
Apogee alt
8,069.6 km
Semi-major
14,444.0 km
B*
0.0000e+0
RAAN
356.8794°
Arg perigee
62.1963°
Mean anomaly
300.9485°
Rev number
20,872

§ Raw data

O3B FM121 40350U 14083C   26144.21221238 -.00000025  00000+0  00000+0 0  99922 40350   0.0557 356.8794 0002546  62.1963 300.9485  5.00115963208725

JSON: /api/v1/satellites/40350 · /tle

For live sub-satellite position, see the globe view (requires WebGL).

§ Visibility from observer

Set your observer location to see the next 7 days of passes ≥ 10°. The values pass through the URL so the page stays shareable.

No JS? Fill the form by hand. The geolocation button needs JavaScript.